Vorticity
nan nan nan nan nan nan nan nan nan nan nan nan nan nan nan nan nan nan nan nan nan nan nan nan nan nan nan nan nan nan nan nan nan nan nan nan nan nan nan nan nan nan nan
nan 16 8 7 9 10 12 13 12 5 4 7 7 8 10 8 7 9 11 10 8 8 7 7 9 7 8 10 9 7 6 9 6 4 6 6 6 10 9 6 9 8 nan
nan 18 10 8 10 11 12 14 14 10 7 6 5 6 7 10 10 8 10 12 9 8 7 7 7 8 7 9 10 10 6 7 6 6 6 7 9 9 11 8 8 8 nan
nan 14 11 9 9 10 11 12 11 15 14 8 7 6 3 6 10 10 10 12 11 7 7 8 7 6 7 9 8 8 7 7 6 6 5 6 13 11 7 12 9 9 nan
nan 9 10 11 11 11 11 12 13 13 17 16 7 6 7 5 9 11 9 9 11 10 9 8 8 6 7 9 10 8 6 5 7 6 6 6 7 9 11 12 8 8 nan
nan 10 10 11 12 10 11 12 13 12 12 19 18 10 8 6 5 9 8 9 9 10 11 10 9 8 9 8 8 9 7 5 7 8 6 6 7 6 7 9 13 9 nan
nan 10 11 11 9 9 11 10 11 12 11 10 21 20 7 9 10 8 8 8 8 10 9 7 8 10 10 9 8 9 9 8 8 7 6 9 6 7 9 7 7 10 nan
nan 10 11 11 9 10 10 10 10 11 10 11 11 21 17 5 12 11 8 8 10 12 11 6 7 7 7 9 8 8 10 9 8 9 7 6 9 9 9 9 8 7 nan
nan 10 12 11 10 10 10 10 11 11 10 11 13 11 19 18 6 7 9 10 9 10 11 10 8 8 7 7 7 8 10 9 9 9 8 6 8 9 9 9 7 8 nan
nan 11 10 10 11 11 10 10 11 12 11 11 12 12 12 17 15 7 9 9 10 11 10 9 8 8 8 8 7 6 9 8 7 10 10 6 7 7 8 10 9 10 nan
nan 11 10 9 11 11 11 10 10 11 11 11 12 12 13 14 18 14 9 13 11 9 11 11 9 10 9 7 7 8 8 8 7 8 9 7 7 6 8 9 9 9 nan
nan 10 10 10 10 11 11 10 10 11 10 11 12 12 12 11 24 19 8 6 9 14 12 12 10 10 9 9 9 8 8 9 8 7 7 7 8 9 8 8 9 8 nan
nan 10 10 10 10 11 10 11 10 11 11 11 12 12 11 11 13 21 18 8 9 10 11 12 11 10 10 9 10 8 8 9 10 9 8 9 8 7 7 8 8 8 nan
nan 10 10 9 9 11 11 10 10 10 12 12 11 11 10 11 10 12 20 19 10 9 11 12 11 10 10 10 11 10 10 10 10 11 10 10 10 9 7 9 8 8 nan
nan 10 10 10 9 9 11 11 10 9 12 11 10 10 12 12 12 11 11 20 19 10 9 12 11 10 10 11 11 11 11 9 9 10 10 10 12 12 10 10 11 9 nan
nan 9 9 10 10 11 10 10 10 11 12 10 10 11 11 12 12 13 12 14 18 16 10 11 15 10 9 15 10 8 9 10 9 9 10 11 11 13 12 8 9 8 nan
nan 10 10 11 10 10 11 10 11 10 11 11 10 11 11 11 12 13 14 13 13 19 16 11 12 10 11 13 11 7 7 11 11 10 9 9 11 12 12 12 9 10 nan
nan 12 10 8 10 10 10 12 12 11 10 10 11 10 11 11 12 13 12 12 13 17 18 15 13 10 15 14 11 8 6 11 12 12 12 11 10 11 10 11 11 11 nan
nan 10 10 10 10 10 11 12 11 10 9 9 11 11 12 12 11 12 13 13 14 13 13 14 18 20 17 17 12 8 8 10 11 11 13 11 11 14 9 7 10 10 nan
nan 10 11 12 9 9 12 12 10 9 8 10 11 11 12 11 11 11 13 16 13 13 12 10 9 14 12 22 26 7 8 10 10 11 13 12 10 13 9 6 10 10 nan
nan 11 12 11 9 10 11 10 9 9 10 11 11 11 12 12 12 13 11 14 13 11 10 9 8 5 8 16 31 25 9 10 10 9 10 16 14 11 13 8 9 13 nan
nan 12 13 10 10 11 11 9 10 10 11 12 11 11 11 12 10 11 12 11 13 10 10 10 9 7 3 4 15 26 27 21 12 9 11 18 18 16 14 12 13 13 nan
nan 11 11 11 10 10 11 9 8 10 12 12 11 11 11 11 11 11 13 11 10 10 10 11 9 9 9 1 1 10 14 21 18 16 16 15 14 14 15 17 12 7 nan
nan 10 10 11 11 10 10 10 9 11 12 11 11 12 10 10 13 11 10 11 11 12 10 10 11 10 10 10 10 9 5 8 16 14 12 10 9 9 9 8 10 11 nan
nan 10 10 9 10 10 10 9 10 12 13 13 11 12 10 9 11 11 10 11 10 15 17 14 14 10 13 11 14 18 18 15 16 12 11 9 8 8 8 9 9 10 nan
nan nan nan nan nan nan nan nan nan nan nan nan nan nan nan nan nan nan nan nan nan nan nan nan nan nan nan nan nan nan nan nan nan nan nan nan nan nan nan nan nan nan nan
CAPE
0 0 0 0 39 360 844 1113 1115 910 491 409 707 321 58 9 1 20 0 2 0 0 0 0 1 2 10 7 5 5 13 33 36 15 25 24 34 23 30 52 73 68 21
0 0 0 0 0 0 0 178 796 999 637 337 542 278 86 6 1 0 0 0 0 0 0 0 4 3 10 11 1 13 18 34 25 7 10 23 16 20 26 41 47 46 57
2 0 0 0 0 0 0 0 54 638 987 271 346 314 128 83 9 4 2 0 0 0 0 0 0 2 6 6 0 4 7 18 29 20 1 13 11 5 19 17 13 16 75
0 0 0 0 0 0 0 0 0 0 443 552 237 643 523 67 1 2 3 4 0 0 0 0 0 1 6 5 0 0 11 10 9 0 0 0 0 2 13 15 17 0 36
1 1 3 2 2 4 3 2 1 0 0 526 396 438 545 129 18 18 4 5 8 0 0 0 0 0 4 5 0 0 6 10 6 0 0 0 0 0 5 6 6 11 9
1 2 1 1 2 1 1 2 1 2 0 0 321 271 357 603 525 78 21 2 2 0 0 0 0 0 0 0 0 0 0 5 9 0 0 0 0 0 0 0 9 3 1
8 7 7 7 2 2 1 1 1 0 0 0 0 299 262 319 615 256 15 1 2 4 1 0 0 0 0 1 0 0 0 0 10 18 13 0 0 0 0 0 1 8 19
9 7 7 10 6 3 4 2 2 1 0 0 1 1 359 232 240 177 58 6 4 4 1 0 0 0 0 0 0 0 0 0 0 11 6 0 0 0 0 0 0 3 0
12 8 13 9 9 7 5 6 4 3 1 1 2 0 1 284 207 98 47 13 10 12 1 0 0 0 0 0 0 0 0 0 0 1 4 0 0 0 2 0 0 0 1
7 14 13 11 11 7 6 4 4 3 3 2 2 1 4 1 184 186 96 6 3 14 3 3 3 3 0 0 0 0 0 0 0 1 0 0 0 0 0 0 0 0 0
14 14 11 15 11 7 5 5 5 3 2 1 1 2 4 1 30 237 81 74 70 64 19 3 2 4 4 0 0 0 0 0 0 0 0 0 0 0 0 0 0 0 0
15 14 12 9 9 7 3 4 4 5 4 1 2 2 2 1 1 177 56 28 12 63 51 14 3 2 2 1 1 0 1 0 1 0 0 0 0 0 0 0 0 0 0
11 10 9 7 9 8 3 2 4 4 6 2 2 2 2 2 0 1 73 62 66 26 25 28 2 0 0 1 1 0 0 0 0 0 0 0 0 0 0 0 0 0 0
12 7 6 5 7 7 5 2 2 4 6 5 4 3 3 3 1 1 1 98 62 43 29 6 2 5 4 1 1 2 2 1 0 0 1 0 0 0 0 0 0 0 0
6 8 7 4 5 6 5 2 2 2 4 5 5 4 3 2 3 2 1 1 41 48 9 2 1 1 0 0 0 0 0 0 0 0 0 0 0 0 0 0 0 0 0
6 9 8 6 7 6 4 3 2 2 2 3 4 5 3 2 2 1 2 0 0 4 6 1 1 0 0 0 0 0 0 0 0 0 0 0 0 0 0 0 0 0 0
6 6 4 2 4 3 3 1 2 2 2 1 3 4 4 3 3 2 1 1 0 0 2 0 0 0 0 0 0 0 0 0 0 0 0 0 0 0 0 0 0 0 0
4 2 2 1 2 3 2 3 2 1 1 1 1 2 2 3 2 2 2 1 2 0 0 0 0 0 0 0 0 0 0 0 0 0 0 0 0 0 0 0 0 0 0
3 2 2 2 0 1 2 3 2 1 0 1 2 1 1 1 2 2 1 2 1 1 1 1 0 0 0 0 0 0 0 0 0 0 0 0 0 0 0 0 0 0 0
3 2 1 3 3 0 2 4 2 0 0 1 3 2 2 1 0 2 1 1 2 2 1 1 1 3 1 0 0 0 0 0 0 0 0 0 0 0 0 0 0 0 0
5 6 3 3 3 2 2 2 2 0 0 1 5 2 2 2 2 1 0 0 0 0 0 1 2 1 2 1 1 0 0 0 0 0 0 0 0 0 0 0 0 0 0
3 3 5 5 6 7 5 3 1 1 1 1 4 2 3 3 4 2 2 0 0 1 1 0 0 1 1 8 7 3 0 0 0 0 0 0 0 0 0 0 0 0 0
2 4 7 4 5 7 7 6 5 4 2 1 4 2 2 2 1 2 2 3 2 0 1 0 0 0 1 1 8 9 6 2 0 0 0 0 0 0 0 0 0 0 0
0 0 1 3 5 7 8 7 5 4 3 1 3 4 2 3 2 2 4 4 3 2 2 2 2 1 0 0 1 1 0 1 0 0 0 0 0 0 1 0 0 0 0
0 0 0 0 1 2 4 5 4 5 3 3 8 7 3 3 2 3 6 6 6 13 4 4 3 1 1 1 4 6 3 2 2 0 0 0 0 0 0 0 0 0 0
0 0 0 0 1 4 5 4 5 6 3 2 8 6 3 4 3 2 1 10 22 21 24 27 20 4 26 23 15 10 12 10 2 0 0 0 0 0 0 0 0 0 0